Flag for Germany

Past Weather in Langenfeld (Rheinland), North Rhine-Westphalia, Germany — Yesterday and Last 2 Weeks

Currently: 64 °F. Passing clouds. (Weather station: Duesseldorf, Germany). See more current weather

Past Weather in Langenfeld (Rheinland) — Graph

°F

Langenfeld (Rheinland) Temperature Yesterday

Maximum temperature yesterday: 73 °F (at 10:50 am)
Minimum temperature yesterday: 59 °F (at 3:50 am)
Average temperature yesterday: 67 °F

High & Low Weather Summary for the Past Weeks

 TemperatureHumidityPressure
High81 °F (Jul 18, 4:20 pm)100% (Jul 10, 3:20 am)30.27 "Hg (Jul 10, 3:20 am)
Low52 °F (Jul 20, 4:20 am)42% (Jul 23, 4:50 pm)29.71 "Hg (Jul 14, 6:50 pm)
Average67 °F77%30.03 "Hg
* Reported Jul 10 1:20 am — Jul 25 1:20 am, Langenfeld (Rheinland). Weather by CustomWeather, © 2021

Note: Actual official high and low records may vary slightly from our data, if they occured in-between our weather recording intervals... More about our weather records

Langenfeld (Rheinland) Weather History for the Previous 24 Hours

Scroll right to see more
 ConditionsComfort  
Time TempWeatherWind HumidityBarometerVisibility
1:20 am
Sun, Jul 25
64 °FPassing clouds.5 mph94%29.77 "HgN/A
12:50 am66 °FPassing clouds.6 mph88%29.77 "HgN/A
12:20 am66 °FPassing clouds.9 mph88%29.80 "HgN/A
11:50 pm
Sat, Jul 24
64 °FPassing clouds.6 mph94%29.77 "HgN/A
11:20 pm63 °FPassing clouds.5 mph100%29.77 "HgN/A
10:50 pm64 °FPassing clouds.3 mph100%29.77 "HgN/A
10:20 pm66 °FPassing clouds.5 mph94%29.80 "HgN/A
9:50 pm66 °FPassing clouds.3 mph94%29.80 "HgN/A
9:20 pm68 °FPassing clouds.8 mph88%29.80 "HgN/A
8:50 pm68 °FPassing clouds.7 mph88%29.77 "Hg5 mi
8:20 pm68 °FClear.2 mph88%29.77 "Hg6 mi
7:50 pm68 °FLight rain. Passing clouds.2 mph94%29.77 "HgN/A
7:20 pm68 °FPassing clouds.1 mph88%29.77 "HgN/A
6:50 pm68 °FLight rain. Passing clouds.5 mph88%29.77 "HgN/A
6:20 pm68 °FPassing clouds.5 mph88%29.77 "HgN/A
5:50 pm68 °FScattered clouds.7 mph94%29.80 "HgN/A
5:20 pm68 °FLight rain. Passing clouds.6 mph88%29.80 "HgN/A
4:50 pm68 °FRain. Scattered clouds.7 mph88%29.80 "Hg6 mi
4:20 pm70 °FLight rain. Passing clouds.6 mph78%29.80 "HgN/A
3:50 pm72 °FLight rain. Passing clouds.6 mph69%29.80 "HgN/A
3:20 pm72 °FLight rain. Passing clouds.8 mph69%29.80 "HgN/A
2:50 pm72 °FPassing clouds.6 mph69%29.80 "HgN/A
1:50 pm72 °FSunny.8 mph65%29.80 "Hg10 mi
1:20 pm72 °FSunny.13 mph65%29.80 "Hg10 mi
12:50 pm73 °FPassing clouds.12 mph61%29.80 "HgN/A
12:20 pm73 °FPassing clouds.7 mph65%29.80 "HgN/A
11:50 am72 °FSunny.2 mph69%29.77 "Hg10 mi
11:20 am73 °FPassing clouds.3 mph65%29.77 "HgN/A
10:50 am73 °FSunny.2 mph65%29.77 "Hg10 mi
10:20 am72 °FSunny.2 mph69%29.77 "Hg10 mi
9:50 am70 °FSunny.7 mph73%29.77 "Hg10 mi
9:20 am66 °FSunny.5 mph78%29.80 "Hg10 mi
8:50 am66 °FSunny.5 mph78%29.80 "Hg10 mi
8:20 am64 °FSunny.3 mph83%29.80 "Hg10 mi
7:50 am63 °FSunny.3 mph88%29.80 "Hg10 mi
7:20 am63 °FSunny.2 mph83%29.83 "Hg10 mi
6:50 am61 °FSunny.2 mph88%29.83 "Hg10 mi
6:20 am61 °FSunny.2 mph88%29.83 "Hg10 mi
5:50 am59 °FSunny.6 mph88%29.83 "Hg10 mi
5:20 am59 °FClear.6 mph88%29.83 "Hg10 mi
4:50 am59 °FClear.5 mph88%29.83 "Hg10 mi
4:20 am59 °FClear.5 mph88%29.86 "Hg10 mi
3:50 am59 °FClear.3 mph88%29.86 "Hg10 mi
3:20 am61 °FClear.3 mph83%29.86 "Hg10 mi
Weather by CustomWeather, © 2021

See weather overview